Home   Weather   Acworth   Past weeks

Flag for USA Past Weather in Acworth, Georgia, USA — Yesterday and Last 2 Weeks

Now
52 °F

Overcast.


Feels Like: 52 °F
Forecast: 50 / 71 °F
Wind: 3 mph from East

Location: Cartersville Airport

Current Time: Feb 28, 2017 at 3:05:08 am

Latest Report: Feb 28, 2017 at 2:20 am


Visibility: 10 mi

Pressure: 30.27 "Hg

Humidity: 80%

Dew Point: 46 °F

Location of AcworthLocation

Past Weather in Acworth — Graph

°F

Acworth Temperature Yesterday

Maximum temperature yesterday: 54 °F (at 5:53 pm)
Minimum temperature yesterday: 37 °F (at 4:53 am)
Average temperature yesterday: 47 °F

High & Low Weather Summary for the Past Weeks

 TemperatureHumidityPressure
High77 °F (Feb 24, 4:53 pm)100% (Feb 20, 7:53 am)30.38 "Hg (Feb 20, 7:53 am)
Low28 °F (Feb 17, 6:53 am)19% (Feb 13, 3:53 pm)29.60 "Hg (Feb 15, 3:53 am)
Average52 °F67%29.99 "Hg
* Reported Feb 13 12:53 am — Feb 28 12:53 am, Acworth, Weather by CustomWeather, © 2017

Note: Actual official high and low records may vary slightly from our data, if they occured in-between our weather recording intervals... More about our weather records

Advertising

Acworth Weather History for the Previous 24 Hours

Scroll right to see more
 ConditionsComfort  
Time TempWeatherWind HumidityBarometerVisibility
12:53 am
Tue, Feb 28
47 °FPassing clouds.3 mph86%30.26 "Hg10 mi
11:53 pm
Mon, Feb 27
45 °FClear.5 mph93%30.27 "Hg10 mi
10:53 pm49 °FClear.3 mph84%30.27 "Hg10 mi
9:53 pm48 °FClear.No wind86%30.26 "Hg10 mi
8:53 pm45 °FClear.No wind93%30.25 "Hg10 mi
7:53 pm48 °FClear.No wind89%30.27 "Hg10 mi
6:53 pm51 °FClear.No wind77%30.26 "Hg10 mi
5:53 pm54 °FSunny.6 mph69%30.24 "Hg10 mi
4:53 pm53 °FPassing clouds.6 mph69%30.23 "Hg10 mi
3:53 pm52 °FPassing clouds.6 mph72%30.26 "Hg10 mi
2:53 pm50 °FSunny.5 mph74%30.24 "Hg10 mi
1:53 pm46 °FBroken clouds.8 mph79%30.24 "Hg10 mi
12:53 pm51 °FLight rain. Overcast.5 mph54%30.33 "Hg10 mi
11:53 am53 °FOvercast.No wind41%30.38 "Hg10 mi
10:53 am53 °FOvercast.6 mph39%30.37 "Hg10 mi
9:53 am52 °FOvercast.5 mph41%30.27 "Hg10 mi
8:53 am50 °FSunny.5 mph43%30.23 "Hg10 mi
7:53 am47 °FSunny.7 mph46%30.24 "Hg10 mi
6:53 am46 °FClear.3 mph48%30.25 "Hg10 mi
5:53 am43 °FClear.3 mph58%30.23 "Hg10 mi
4:53 am37 °FClear.5 mph76%30.22 "Hg10 mi
3:53 am40 °FClear.3 mph73%30.20 "Hg10 mi
Weather by CustomWeather, © 2017

See weather overviewHow to use our weather pages